Location: *
(53.9002°N, 27.5624°E)
Time: 02:55:43
(UTC+00:00)

COSMO-SKYMED 1 - Pass Details

Date: 12 November 2019
Orbit: 621 x 623 km, 97.9° (Epoch: 11 December)

Event Time Altitude Azimuth Distance (km) Brightness Sun altitude
Exits shadow 17:01:39 12° 6° (N) 1,893 5.0 -24.2°
Maximum altitude 17:05:36 54° 291° (WNW) 767 3.3 -24.8°
Drops below altitude 10° 17:09:50 10° 215° (SW) 1,991 5.5 -25.4°
Sets 17:12:02 0° 210° (SSW) 2,893 6.3 -25.7°
